• In Uzbekistan
  • List of Countries
  • For 7 days
  • Water Temperature
  • Satellite Maps
  • Weather Map
  • Weather Widgets
  • user-avatar
    Login

    Hourly Weather Santiago del Estero

    Today, 27 July, Thursday

    Time Temperature Precipitation Wind Pressure Humidity
    00:00 +20°C° 0 mm 2 mps 744 mmHg 79%
    01:00 +20°C° 0 mm 2 mps 743 mmHg 82%
    02:00 +19°C° 0 mm 2 mps 743 mmHg 85%
    03:00 +19°C° 0 mm 2 mps 743 mmHg 86%
    04:00 +19°C° 0 mm 1 mps 742 mmHg 87%
    05:00 +19°C° 0 mm 1 mps 742 mmHg 88%
    06:00 +20°C° 0 mm 1 mps 742 mmHg 85%
    07:00 +20°C° 0 mm 1 mps 742 mmHg 81%
    08:00 +21°C° 0 mm 1 mps 742 mmHg 78%
    09:00 +24°C° 0 mm 3 mps 742 mmHg 64%
    10:00 +27°C° 0 mm 5 mps 742 mmHg 50%
    11:00 +31°C° 0 mm 8 mps 742 mmHg 36%
    12:00 +32°C° 0 mm 8 mps 742 mmHg 31%
    13:00 +34°C° 0 mm 9 mps 741 mmHg 27%
    14:00 +35°C° 0 mm 9 mps 740 mmHg 22%
    15:00 +35°C° 0 mm 8 mps 739 mmHg 23%
    16:00 +34°C° 0 mm 7 mps 739 mmHg 24%
    17:00 +34°C° 0 mm 6 mps 739 mmHg 24%
    18:00 +32°C° 0 mm 5 mps 739 mmHg 26%
    19:00 +30°C° 0 mm 5 mps 739 mmHg 28%
    20:00 +28°C° 0 mm 5 mps 739 mmHg 29%
    21:00 +28°C° 0 mm 5 mps 739 mmHg 30%
    22:00 +27°C° 0 mm 5 mps 739 mmHg 31%
    23:00 +27°C° 0 mm 5 mps 739 mmHg 31%

    Tomorrow, 28 July, Friday

    Time Temperature Precipitation Wind Pressure Humidity
    00:00 +26°C° 0 mm 6 mps 739 mmHg 32%
    01:00 +26°C° 0 mm 6 mps 739 mmHg 33%
    02:00 +26°C° 0 mm 6 mps 738 mmHg 33%
    03:00 +24°C° 0 mm 6 mps 738 mmHg 34%
    04:00 +24°C° 0 mm 6 mps 738 mmHg 34%
    05:00 +24°C° 0 mm 6 mps 738 mmHg 35%
    06:00 +24°C° 0 mm 6 mps 738 mmHg 34%
    07:00 +24°C° 0 mm 7 mps 738 mmHg 34%
    08:00 +24°C° 0 mm 7 mps 739 mmHg 34%
    09:00 +27°C° 0 mm 8 mps 739 mmHg 30%
    10:00 +29°C° 0 mm 9 mps 739 mmHg 27%
    11:00 +33°C° 0 mm 10 mps 739 mmHg 23%
    12:00 +34°C° 0 mm 10 mps 739 mmHg 22%
    13:00 +36°C° 0 mm 10 mps 738 mmHg 21%
    14:00 +37°C° 0 mm 10 mps 737 mmHg 19%
    15:00 +37°C° 0 mm 9 mps 737 mmHg 20%
    16:00 +35°C° 0 mm 7 mps 737 mmHg 21%
    17:00 +35°C° 0 mm 6 mps 736 mmHg 21%
    18:00 +33°C° 0 mm 6 mps 737 mmHg 22%
    19:00 +32°C° 0 mm 6 mps 737 mmHg 23%
    20:00 +29°C° 0 mm 5 mps 738 mmHg 24%
    21:00 +29°C° 0 mm 5 mps 738 mmHg 25%
    22:00 +28°C° 0 mm 5 mps 738 mmHg 25%
    23:00 +28°C° 0 mm 5 mps 739 mmHg 25%

    Day after tomorrow, 29 July, Saturday

    Time Temperature Precipitation Wind Pressure Humidity
    00:00 +27°C° 0 mm 5 mps 738 mmHg 26%
    01:00 +27°C° 0 mm 5 mps 738 mmHg 27%
    02:00 +26°C° 0 mm 5 mps 738 mmHg 27%
    03:00 +25°C° 0 mm 5 mps 738 mmHg 28%
    04:00 +25°C° 0 mm 5 mps 738 mmHg 29%
    05:00 +23°C° 0 mm 5 mps 739 mmHg 29%
    06:00 +23°C° 0 mm 4 mps 739 mmHg 31%
    07:00 +23°C° 0 mm 4 mps 740 mmHg 32%
    08:00 +23°C° 0 mm 4 mps 741 mmHg 33%
    09:00 +26°C° 0 mm 5 mps 741 mmHg 30%
    10:00 +29°C° 0 mm 6 mps 742 mmHg 27%
    11:00 +32°C° 0 mm 7 mps 742 mmHg 24%
    12:00 +33°C° 0 mm 6 mps 742 mmHg 23%
    13:00 +34°C° 0 mm 5 mps 741 mmHg 23%
    14:00 +35°C° 0 mm 5 mps 741 mmHg 22%
    15:00 +35°C° 0 mm 4 mps 741 mmHg 23%
    16:00 +35°C° 0 mm 3 mps 741 mmHg 24%
    17:00 +34°C° 0 mm 2 mps 741 mmHg 25%
    18:00 +31°C° 0 mm 2 mps 742 mmHg 29%
    19:00 +29°C° 0 mm 2 mps 742 mmHg 33%
    20:00 +27°C° 0 mm 2 mps 743 mmHg 36%
    21:00 +26°C° 0 mm 3 mps 743 mmHg 39%
    22:00 +25°C° 0 mm 4 mps 744 mmHg 42%
    23:00 +23°C° 0 mm 5 mps 744 mmHg 45%

    30 July, Sunday

    Time Temperature Precipitation Wind Pressure Humidity
    00:00 +22°C° 0 mm 5 mps 744 mmHg 51%
    01:00 +21°C° 0 mm 5 mps 744 mmHg 56%
    02:00 +19°C° 0 mm 5 mps 744 mmHg 62%
    03:00 +19°C° 0 mm 5 mps 744 mmHg 64%
    04:00 +17°C° 0 mm 5 mps 744 mmHg 66%
    05:00 +16°C° 0 mm 5 mps 744 mmHg 68%
    06:00 +16°C° 0 mm 5 mps 745 mmHg 68%
    07:00 +16°C° 0 mm 5 mps 745 mmHg 67%
    08:00 +15°C° 0 mm 5 mps 746 mmHg 67%
    09:00 +17°C° 0 mm 5 mps 746 mmHg 61%
    10:00 +20°C° 0 mm 5 mps 746 mmHg 55%
    11:00 +21°C° 0 mm 4 mps 746 mmHg 48%
    12:00 +22°C° 0 mm 4 mps 745 mmHg 45%
    13:00 +25°C° 0 mm 4 mps 745 mmHg 42%
    14:00 +26°C° 0 mm 4 mps 744 mmHg 39%
    15:00 +26°C° 0 mm 4 mps 744 mmHg 39%
    16:00 +26°C° 0 mm 4 mps 744 mmHg 40%
    17:00 +25°C° 0 mm 3 mps 744 mmHg 41%
    18:00 +23°C° 0 mm 4 mps 745 mmHg 45%
    19:00 +21°C° 0 mm 4 mps 745 mmHg 49%
    20:00 +20°C° 0 mm 4 mps 746 mmHg 53%
    21:00 +19°C° 0 mm 4 mps 746 mmHg 56%
    22:00 +18°C° 0 mm 4 mps 747 mmHg 60%
    23:00 +17°C° 0 mm 4 mps 747 mmHg 63%

    31 July, Monday

    Time Temperature Precipitation Wind Pressure Humidity
    00:00 +17°C° 0 mm 4 mps 747 mmHg 67%
    01:00 +15°C° 0 mm 4 mps 747 mmHg 71%
    02:00 +16°C° 0 mm 3 mps 747 mmHg 74%
    03:00 +14°C° 0 mm 3 mps 747 mmHg 76%
    04:00 +13°C° 0 mm 3 mps 746 mmHg 77%
    05:00 +13°C° 0 mm 3 mps 746 mmHg 78%
    06:00 +13°C° 0 mm 3 mps 746 mmHg 77%
    07:00 +13°C° 0 mm 3 mps 747 mmHg 76%
    08:00 +13°C° 0 mm 4 mps 747 mmHg 75%
    09:00 +14°C° 0 mm 4 mps 747 mmHg 68%
    10:00 +17°C° 0 mm 4 mps 747 mmHg 62%
    11:00 +19°C° 0 mm 4 mps 747 mmHg 56%
    12:00 +20°C° 0 mm 4 mps 746 mmHg 53%
    13:00 +21°C° 0 mm 4 mps 744 mmHg 51%
    14:00 +22°C° 0 mm 4 mps 743 mmHg 49%
    15:00 +21°C° 0 mm 4 mps 743 mmHg 51%
    16:00 +21°C° 0 mm 4 mps 743 mmHg 53%
    17:00 +20°C° 0 mm 5 mps 742 mmHg 56%
    18:00 +19°C° 0 mm 4 mps 743 mmHg 61%
    19:00 +17°C° 0 mm 4 mps 743 mmHg 66%
    20:00 +16°C° 0 mm 3 mps 743 mmHg 71%
    21:00 +14°C° 0 mm 3 mps 743 mmHg 73%
    22:00 +14°C° 0 mm 3 mps 743 mmHg 75%
    23:00 +13°C° 0 mm 3 mps 743 mmHg 77%

    1 August, Tuesday

    Time Temperature Precipitation Wind Pressure Humidity
    00:00 +13°C° 0 mm 3 mps 743 mmHg 79%
    01:00 +12°C° 0 mm 3 mps 742 mmHg 81%
    02:00 +13°C° 0 mm 2 mps 742 mmHg 83%
    03:00 +12°C° 0 mm 2 mps 742 mmHg 85%
    04:00 +11°C° 0 mm 3 mps 741 mmHg 87%
    05:00 +11°C° 0 mm 3 mps 741 mmHg 88%
    06:00 +11°C° 0 mm 3 mps 742 mmHg 87%
    07:00 +12°C° 0 mm 3 mps 742 mmHg 86%
    08:00 +12°C° 0 mm 4 mps 743 mmHg 84%
    09:00 +13°C° 0 mm 4 mps 743 mmHg 80%
    10:00 +14°C° 0 mm 4 mps 743 mmHg 75%
    11:00 +15°C° 0 mm 5 mps 743 mmHg 70%
    12:00 +16°C° 0 mm 5 mps 743 mmHg 68%
    13:00 +16°C° 0 mm 5 mps 743 mmHg 66%
    14:00 +17°C° 0 mm 6 mps 742 mmHg 64%
    15:00 +17°C° 0 mm 5 mps 743 mmHg 64%
    16:00 +17°C° 0 mm 5 mps 743 mmHg 65%
    17:00 +17°C° 0 mm 5 mps 744 mmHg 65%
    18:00 +17°C° 0 mm 4 mps 745 mmHg 68%
    19:00 +15°C° 0 mm 4 mps 746 mmHg 71%
    20:00 +16°C° 0 mm 3 mps 747 mmHg 74%
    21:00 +14°C° 0 mm 3 mps 747 mmHg 76%
    22:00 +13°C° 0 mm 3 mps 748 mmHg 79%
    23:00 +13°C° 0 mm 3 mps 748 mmHg 82%
    Show more